Home   Weather   Braunschweig   Past weeks

Flag for Germany Past Weather in Braunschweig, Lower Saxony, Germany — Yesterday and Last 2 Weeks

Now
18 °F

Passing clouds.


Feels Like: 18 °F
Forecast: 22 / 33 °F
Wind: No wind

Location: Celle Airport

Current Time: Dec 6, 2016 at 4:06:44 am

Latest Report: Dec 6, 2016 at 3:20 am


Visibility: N/A

Pressure: 30.39 "Hg

Humidity: 93%

Dew Point: 16 °F

Location of BraunschweigLocation

Past Weather in Braunschweig — Graph

°F

Braunschweig Temperature Yesterday

Maximum temperature yesterday: 36 °F (at 1:20 pm)
Minimum temperature yesterday: 18 °F (at 8:20 am)
Average temperature yesterday: 24 °F

High & Low Weather Summary for the Past Weeks

 TemperatureHumidityPressure
High57 °F (Nov 21, 11:20 am)100% (Nov 22, 11:20 pm)30.60 "Hg (Nov 22, 11:20 pm)
Low18 °F (Nov 29, 3:20 am)49% (Dec 2, 2:20 pm)29.62 "Hg (Nov 21, 2:20 am)
Average35 °F88%30.20 "Hg
* Reported Nov 21 2:20 am — Dec 6 2:20 am, Braunschweig, Weather by CustomWeather, © 2016

Note: Actual official high and low records may vary slightly from our data, if they occured in-between our weather recording intervals... More about our weather records

Advertising

Braunschweig Weather History for the Previous 24 Hours

Scroll right to see more
 ConditionsComfort  
Time TempWeatherWind HumidityBarometerVisibility
2:20 am
Tue, Dec 6
18 °FPassing clouds.No wind93%30.36 "HgN/A
1:20 am18 °FPassing clouds.No wind93%30.36 "HgN/A
12:20 am18 °FPassing clouds.No wind93%30.36 "HgN/A
11:20 pm
Mon, Dec 5
18 °FPassing clouds.No wind93%30.36 "HgN/A
10:20 pm19 °FPassing clouds.No wind100%30.36 "HgN/A
9:20 pm21 °FPassing clouds.1 mph100%30.33 "HgN/A
8:20 pm21 °FFog.No wind93%30.33 "HgN/A
7:20 pm21 °FFog.No wind100%30.33 "HgN/A
6:20 pm23 °FFog.No wind93%30.33 "HgN/A
5:20 pm25 °FFog.No wind100%30.33 "HgN/A
4:20 pm30 °FFog.2 mph86%30.30 "HgN/A
3:20 pm34 °FPassing clouds.1 mph81%30.30 "HgN/A
2:20 pm36 °FPassing clouds.2 mph70%30.30 "HgN/A
1:20 pm36 °FPassing clouds.2 mph70%30.30 "HgN/A
12:20 pm34 °FPassing clouds.No wind70%30.33 "HgN/A
11:20 am28 °FPassing clouds.1 mph86%30.33 "HgN/A
10:20 am23 °FPassing clouds.1 mph93%30.33 "HgN/A
9:20 am19 °FPassing clouds.1 mph93%30.33 "Hg6 mi
8:20 am18 °FPassing clouds.2 mph86%30.33 "HgN/A
7:20 am19 °FPassing clouds.1 mph93%30.33 "Hg5 mi
6:20 am19 °FIce fog.No wind93%30.36 "Hg3 mi
5:48 am19 °FIce fog.2 mph100%30.36 "Hg3 mi
5:20 am21 °FIce fog.2 mph93%30.36 "Hg3 mi
4:20 am21 °FIce fog.2 mph93%30.36 "Hg3 mi
Weather by CustomWeather, © 2016

See weather overviewHow to use our weather pages